RYR6015 LFBZ-EGPH

Flight info

Callsign RYR6015
Flight time 1h 54m
Altitude 36000
Route VAVIX DCT CNA DCT TUPAR UY120 AKIKI UN867 VASUX DCT TNT UN57 POL UN601 RIBEL DCT INPIP
Aircraft B738/M-SDE2E3FGHIRWXY/LB1

Departure

Time 2026-04-21 16:15
Airport Biarritz Pays Basque airport (LFBZ)

Arrival

Time 2026-04-21 18:10
Airport Edinburgh Airport (EGPH)
Time Latitude Longitude Altitude Speed Heading
2026-04-21 16:03 43.47110 -1.53117 254 ft 0 kts 18°
2026-04-21 16:08 43.47109 -1.53118 254 ft 1 kts 18°
2026-04-21 16:09 43.47095 -1.53123 254 ft 3 kts
2026-04-21 16:09 43.47077 -1.53118 254 ft 3 kts 332°
2026-04-21 16:09 43.47062 -1.53100 254 ft 3 kts 301°
2026-04-21 16:09 43.47055 -1.53078 254 ft 1 kts 288°
2026-04-21 16:10 43.47051 -1.53060 254 ft 3 kts 282°
2026-04-21 16:10 43.47051 -1.53058 254 ft 0 kts 282°
2026-04-21 16:10 43.47051 -1.53060 254 ft 1 kts 282°
2026-04-21 16:10 43.47054 -1.53078 254 ft 2 kts 278°
2026-04-21 16:11 43.47055 -1.53105 254 ft 4 kts 269°
2026-04-21 16:11 43.47050 -1.53153 254 ft 3 kts 247°
2026-04-21 16:11 43.47030 -1.53189 254 ft 7 kts 220°
2026-04-21 16:11 43.46977 -1.53204 254 ft 9 kts 167°
2026-04-21 16:12 43.46907 -1.53163 254 ft 13 kts 153°
2026-04-21 16:12 43.46833 -1.53161 254 ft 11 kts 239°
2026-04-21 16:12 43.46829 -1.53263 254 ft 12 kts 269°
2026-04-21 16:12 43.46828 -1.53397 254 ft 15 kts 269°
2026-04-21 16:13 43.46826 -1.53548 254 ft 14 kts 269°
2026-04-21 16:13 43.46853 -1.53657 254 ft 10 kts 302°
2026-04-21 16:13 43.46836 -1.53710 254 ft 6 kts 179°
2026-04-21 16:13 43.46825 -1.53667 254 ft 5 kts 90°
2026-04-21 16:14 43.46825 -1.53654 254 ft 1 kts 89°
2026-04-21 16:14 43.46825 -1.53653 254 ft 0 kts 89°
2026-04-21 16:14 43.46826 -1.53578 254 ft 30 kts 89°
2026-04-21 16:14 43.46832 -1.53027 254 ft 84 kts 89°
2026-04-21 16:15 43.46843 -1.51983 254 ft 132 kts 89°
2026-04-21 16:15 43.46856 -1.50585 569 ft 148 kts 89°
2026-04-21 16:15 43.46870 -1.49150 1185 ft 152 kts 88°
2026-04-21 16:15 43.46887 -1.47699 1790 ft 155 kts 89°
2026-04-21 16:16 43.46922 -1.46201 2385 ft 159 kts 81°
2026-04-21 16:16 43.47533 -1.44912 2969 ft 167 kts 43°
2026-04-21 16:16 43.48637 -1.44430 3564 ft 174 kts
2026-04-21 16:16 43.49817 -1.44830 4172 ft 175 kts 342°
2026-04-21 16:17 43.50939 -1.45489 4730 ft 178 kts 336°
2026-04-21 16:17 43.52102 -1.46118 5272 ft 181 kts 349°
2026-04-21 16:17 43.53328 -1.45888 5806 ft 177 kts 26°
2026-04-21 16:17 43.54351 -1.44949 6264 ft 184 kts 40°
2026-04-21 16:18 43.55385 -1.43759 6647 ft 200 kts 43°
2026-04-21 16:18 43.56472 -1.42454 7059 ft 218 kts 43°
2026-04-21 16:18 43.57668 -1.40998 7468 ft 238 kts 44°
2026-04-21 16:18 43.58948 -1.39427 7873 ft 258 kts 43°
2026-04-21 16:19 43.60334 -1.37708 8271 ft 280 kts 43°
2026-04-21 16:19 43.61862 -1.35813 8690 ft 307 kts 43°
2026-04-21 16:19 43.63508 -1.33795 9434 ft 322 kts 43°
2026-04-21 16:19 43.65199 -1.31728 10240 ft 333 kts 42°
2026-04-21 16:20 43.66972 -1.29550 11055 ft 344 kts 42°
2026-04-21 16:20 43.68764 -1.27334 11856 ft 353 kts 42°
2026-04-21 16:20 43.70619 -1.25027 12666 ft 360 kts 42°
2026-04-21 16:20 43.72539 -1.22786 13472 ft 366 kts 38°
2026-04-21 16:21 43.74600 -1.20633 14287 ft 371 kts 36°
2026-04-21 16:21 43.76701 -1.18570 15087 ft 375 kts 34°
2026-04-21 16:21 43.78880 -1.16485 15898 ft 383 kts 34°
2026-04-21 16:21 43.81103 -1.14375 16746 ft 394 kts 33°
2026-04-21 16:22 43.83382 -1.12215 17598 ft 402 kts 33°
2026-04-21 16:22 43.85871 -1.10388 18457 ft 406 kts 19°
2026-04-21 16:22 43.88621 -1.09415 19333 ft 409 kts
2026-04-21 16:22 43.91451 -1.08912 20218 ft 410 kts
2026-04-21 16:23 43.94281 -1.08642 21085 ft 412 kts
2026-04-21 16:23 43.97138 -1.08481 21944 ft 412 kts 360°
2026-04-21 16:23 44.00012 -1.08372 22797 ft 412 kts 359°
2026-04-21 16:23 44.02888 -1.08288 23652 ft 411 kts 359°
2026-04-21 16:24 44.05739 -1.08215 24501 ft 409 kts 359°
2026-04-21 16:24 44.08561 -1.08146 25264 ft 409 kts 359°
2026-04-21 16:24 44.11436 -1.08073 25903 ft 411 kts 359°
2026-04-21 16:24 44.14282 -1.07999 26506 ft 413 kts 358°
2026-04-21 16:25 44.17176 -1.07918 27112 ft 414 kts 359°
2026-04-21 16:25 44.20036 -1.07834 27708 ft 415 kts 358°
2026-04-21 16:25 44.22954 -1.07745 28279 ft 422 kts 359°
2026-04-21 16:25 44.25944 -1.07651 28800 ft 431 kts 358°
2026-04-21 16:26 44.28953 -1.07553 29303 ft 440 kts 358°
2026-04-21 16:26 44.32044 -1.07449 29809 ft 447 kts 358°
2026-04-21 16:26 44.35184 -1.07339 30313 ft 453 kts 358°
2026-04-21 16:26 44.38326 -1.07236 30811 ft 458 kts 358°
2026-04-21 16:27 44.41536 -1.07147 31314 ft 462 kts 357°
2026-04-21 16:27 44.44770 -1.07055 31817 ft 465 kts 357°
2026-04-21 16:27 44.47984 -1.06952 32313 ft 468 kts 357°
2026-04-21 16:27 44.51251 -1.06848 32814 ft 470 kts 356°
2026-04-21 16:28 44.54533 -1.06752 33316 ft 471 kts 356°
2026-04-21 16:28 44.57792 -1.06648 33812 ft 472 kts 356°
2026-04-21 16:28 44.61075 -1.06536 34312 ft 472 kts 356°
2026-04-21 16:28 44.64343 -1.06441 34810 ft 472 kts 356°
2026-04-21 16:29 44.67655 -1.06336 35315 ft 471 kts 356°
2026-04-21 16:29 44.70941 -1.06222 35669 ft 474 kts 356°
2026-04-21 16:29 44.74272 -1.06110 35783 ft 480 kts 356°
2026-04-21 16:30 44.80988 -1.05900 35821 ft 485 kts 356°
2026-04-21 16:30 44.87649 -1.05691 35828 ft 478 kts 356°
2026-04-21 16:31 44.94283 -1.05473 35833 ft 474 kts 356°
2026-04-21 16:31 45.00886 -1.05250 35838 ft 472 kts 356°
2026-04-21 16:32 45.07420 -1.05024 35842 ft 470 kts 356°
2026-04-21 16:32 45.13941 -1.04806 35847 ft 469 kts 356°
2026-04-21 16:33 45.20490 -1.04671 35851 ft 468 kts 355°
2026-04-21 16:33 45.26986 -1.04575 35859 ft 467 kts 355°
2026-04-21 16:34 45.33471 -1.04490 35866 ft 466 kts 355°
2026-04-21 16:34 45.39944 -1.04416 35873 ft 466 kts 355°
2026-04-21 16:35 45.46439 -1.04349 35880 ft 465 kts 355°
2026-04-21 16:35 45.52911 -1.04283 35886 ft 465 kts 355°
2026-04-21 16:36 45.59384 -1.04217 35892 ft 465 kts 355°
2026-04-21 16:36 45.65822 -1.04151 35898 ft 465 kts 355°
2026-04-21 16:37 45.72296 -1.04084 35912 ft 464 kts 355°
2026-04-21 16:37 45.78734 -1.04017 35919 ft 464 kts 355°
2026-04-21 16:38 45.85191 -1.03950 35923 ft 464 kts 355°
2026-04-21 16:38 45.91666 -1.03882 35927 ft 464 kts 355°
2026-04-21 16:39 45.98095 -1.03889 35930 ft 463 kts 355°
2026-04-21 16:39 46.04527 -1.03897 35932 ft 463 kts 355°
2026-04-21 16:40 46.10994 -1.03893 35933 ft 461 kts 355°
2026-04-21 16:40 46.17391 -1.03885 35934 ft 461 kts 355°
2026-04-21 16:41 46.22707 -1.03896 35935 ft 460 kts 355°
2026-04-21 16:41 46.30194 -1.03894 35937 ft 460 kts 355°
2026-04-21 16:42 46.36590 -1.03884 35940 ft 459 kts 355°
2026-04-21 16:42 46.42960 -1.03894 35944 ft 459 kts 355°
2026-04-21 16:43 46.49335 -1.03894 35949 ft 459 kts 355°
2026-04-21 16:43 46.55751 -1.03839 35953 ft 459 kts 355°
2026-04-21 16:44 46.62132 -1.03785 35957 ft 459 kts 355°
2026-04-21 16:44 46.68514 -1.03743 35959 ft 459 kts 355°
2026-04-21 16:45 46.73841 -1.03713 35965 ft 458 kts 355°
2026-04-21 16:45 46.80204 -1.03677 35969 ft 458 kts 355°
2026-04-21 16:46 46.86567 -1.03666 35972 ft 458 kts 355°
2026-04-21 16:46 46.92936 -1.04011 35982 ft 455 kts 352°
2026-04-21 16:47 46.99214 -1.04656 35982 ft 454 kts 351°
2026-04-21 16:47 47.05516 -1.05393 35985 ft 454 kts 351°
2026-04-21 16:48 47.11838 -1.06164 35989 ft 454 kts 351°
2026-04-21 16:48 47.18097 -1.06947 35994 ft 453 kts 350°
2026-04-21 16:49 47.24388 -1.07743 36009 ft 453 kts 350°
2026-04-21 16:49 47.30644 -1.08544 36013 ft 453 kts 350°
2026-04-21 16:50 47.36905 -1.09438 36016 ft 452 kts 349°
2026-04-21 16:50 47.43180 -1.10386 36021 ft 452 kts 349°
2026-04-21 16:51 47.49445 -1.11300 36027 ft 452 kts 350°
2026-04-21 16:51 47.55687 -1.12137 36033 ft 451 kts 350°
2026-04-21 16:52 47.61920 -1.12954 36042 ft 451 kts 350°
2026-04-21 16:52 47.68168 -1.13777 36049 ft 451 kts 350°
2026-04-21 16:53 47.74427 -1.14612 36055 ft 451 kts 350°
2026-04-21 16:53 47.80699 -1.15455 36057 ft 451 kts 350°
2026-04-21 16:54 47.86938 -1.16306 36061 ft 451 kts 350°
2026-04-21 16:54 47.93165 -1.17167 36063 ft 451 kts 350°
2026-04-21 16:55 47.99394 -1.18032 36065 ft 450 kts 350°
2026-04-21 16:55 48.05659 -1.18902 36067 ft 450 kts 350°
2026-04-21 16:56 48.11888 -1.19764 36072 ft 449 kts 350°
2026-04-21 16:56 48.18091 -1.20624 36073 ft 448 kts 350°
2026-04-21 16:57 48.24275 -1.21484 36074 ft 448 kts 350°
2026-04-21 16:57 48.30483 -1.22349 36075 ft 448 kts 350°
2026-04-21 16:58 48.36685 -1.23203 36076 ft 447 kts 350°
2026-04-21 16:58 48.42873 -1.24054 36079 ft 447 kts 350°
2026-04-21 16:59 48.49085 -1.24910 36081 ft 447 kts 350°
2026-04-21 16:59 48.55273 -1.25765 36084 ft 447 kts 350°
2026-04-21 17:00 48.61452 -1.26622 36097 ft 447 kts 350°
2026-04-21 17:00 48.66638 -1.27346 36109 ft 447 kts 350°
2026-04-21 17:01 48.73843 -1.28355 36118 ft 446 kts 350°
2026-04-21 17:01 48.80030 -1.29233 36124 ft 446 kts 349°
2026-04-21 17:02 48.86172 -1.30159 36128 ft 446 kts 350°
2026-04-21 17:02 48.92333 -1.31056 36134 ft 445 kts 350°
2026-04-21 17:03 48.98505 -1.31997 36140 ft 444 kts 349°
2026-04-21 17:03 49.04652 -1.33005 36146 ft 444 kts 349°
2026-04-21 17:04 49.10775 -1.34035 36152 ft 443 kts 349°
2026-04-21 17:04 49.16916 -1.35000 36158 ft 443 kts 350°
2026-04-21 17:05 49.23050 -1.35934 36173 ft 443 kts 349°
2026-04-21 17:05 49.29158 -1.36933 36180 ft 442 kts 349°
2026-04-21 17:06 49.35289 -1.37965 36184 ft 442 kts 349°
2026-04-21 17:06 49.41412 -1.38924 36188 ft 442 kts 349°
2026-04-21 17:07 49.47523 -1.39838 36192 ft 442 kts 349°
2026-04-21 17:07 49.53637 -1.40771 36197 ft 443 kts 352°
2026-04-21 17:08 49.59834 -1.40900 36205 ft 445 kts 356°
2026-04-21 17:08 49.66028 -1.40588 36200 ft 446 kts 357°
2026-04-21 17:09 49.75325 -1.39921 36199 ft 446 kts 358°
2026-04-21 17:09 49.81509 -1.39447 36200 ft 446 kts 358°
2026-04-21 17:10 49.87709 -1.38967 36201 ft 446 kts 358°
2026-04-21 17:10 49.93877 -1.38475 36204 ft 446 kts 359°
2026-04-21 17:11 50.00069 -1.37508 36213 ft 449 kts
2026-04-21 17:11 50.06272 -1.36158 36212 ft 449 kts
2026-04-21 17:12 50.12453 -1.34696 36215 ft 449 kts
2026-04-21 17:12 50.18597 -1.33208 36218 ft 449 kts
2026-04-21 17:13 50.24774 -1.31702 36223 ft 449 kts
2026-04-21 17:13 50.30927 -1.30199 36229 ft 449 kts
2026-04-21 17:14 50.37102 -1.28689 36235 ft 448 kts
2026-04-21 17:14 50.43257 -1.27183 36241 ft 448 kts
2026-04-21 17:15 50.49412 -1.26662 36255 ft 442 kts 354°
2026-04-21 17:15 50.55553 -1.27180 36257 ft 440 kts 351°
2026-04-21 17:16 50.61631 -1.27991 36255 ft 439 kts 350°
2026-04-21 17:16 50.67709 -1.28889 36257 ft 439 kts 350°
2026-04-21 17:17 50.73805 -1.29819 36258 ft 438 kts 350°
2026-04-21 17:17 50.79861 -1.30763 36259 ft 438 kts 350°
2026-04-21 17:18 50.85899 -1.31722 36260 ft 438 kts 350°
2026-04-21 17:18 50.92000 -1.32701 36259 ft 438 kts 350°
2026-04-21 17:19 50.98025 -1.33676 36259 ft 438 kts 350°
2026-04-21 17:19 51.04104 -1.34668 36260 ft 438 kts 350°
2026-04-21 17:20 51.10165 -1.35673 36261 ft 438 kts 350°
2026-04-21 17:20 51.16196 -1.36685 36262 ft 437 kts 349°
2026-04-21 17:21 51.22239 -1.37700 36265 ft 437 kts 349°
2026-04-21 17:21 51.28318 -1.38729 36266 ft 437 kts 350°
2026-04-21 17:22 51.34349 -1.39767 36270 ft 437 kts 349°
2026-04-21 17:22 51.40378 -1.40814 36277 ft 437 kts 350°
2026-04-21 17:23 51.46436 -1.41875 36283 ft 437 kts 349°
2026-04-21 17:23 51.52468 -1.42939 36299 ft 436 kts 349°
2026-04-21 17:24 51.58494 -1.43986 36306 ft 437 kts 350°
2026-04-21 17:24 51.64568 -1.44958 36309 ft 437 kts 350°
2026-04-21 17:25 51.70586 -1.45977 36312 ft 436 kts 350°
2026-04-21 17:25 51.76657 -1.47011 36315 ft 437 kts 350°
2026-04-21 17:26 51.82691 -1.47965 36316 ft 437 kts 351°
2026-04-21 17:26 51.88759 -1.48899 36319 ft 437 kts 351°
2026-04-21 17:27 51.94773 -1.49821 36321 ft 437 kts 351°
2026-04-21 17:27 52.00853 -1.50760 36324 ft 436 kts 351°
2026-04-21 17:28 52.06866 -1.51715 36329 ft 437 kts 351°
2026-04-21 17:28 52.12940 -1.52700 36335 ft 437 kts 351°
2026-04-21 17:29 52.18991 -1.53690 36346 ft 437 kts 351°
2026-04-21 17:29 52.25023 -1.54682 36356 ft 437 kts 351°
2026-04-21 17:30 52.31069 -1.55688 36364 ft 437 kts 351°
2026-04-21 17:30 52.37112 -1.56706 36371 ft 438 kts 351°
2026-04-21 17:31 52.43194 -1.57736 36374 ft 438 kts 351°
2026-04-21 17:31 52.49249 -1.58777 36377 ft 438 kts 351°
2026-04-21 17:32 52.55300 -1.59833 36379 ft 438 kts 351°
2026-04-21 17:32 52.61403 -1.60803 36382 ft 439 kts 352°
2026-04-21 17:33 52.66447 -1.61473 36386 ft 439 kts 352°
2026-04-21 17:33 52.72536 -1.62240 36391 ft 440 kts 352°
2026-04-21 17:34 52.78637 -1.63003 36395 ft 440 kts 352°
2026-04-21 17:34 52.84758 -1.63786 36393 ft 441 kts 352°
2026-04-21 17:35 52.90871 -1.64613 36387 ft 441 kts 352°
2026-04-21 17:35 52.97014 -1.65572 36381 ft 442 kts 352°
2026-04-21 17:36 53.03054 -1.67222 36377 ft 439 kts 343°
2026-04-21 17:36 53.08886 -1.70088 36366 ft 439 kts 340°
2026-04-21 17:37 53.14697 -1.73380 36352 ft 439 kts 339°
2026-04-21 17:37 53.20444 -1.76780 36345 ft 440 kts 339°
2026-04-21 17:38 53.26214 -1.80259 36343 ft 441 kts 338°
2026-04-21 17:38 53.31967 -1.83763 36345 ft 442 kts 338°
2026-04-21 17:39 53.37766 -1.87331 36352 ft 442 kts 338°
2026-04-21 17:39 53.43513 -1.90899 36364 ft 443 kts 338°
2026-04-21 17:40 53.49317 -1.94524 36372 ft 444 kts 338°
2026-04-21 17:40 53.55094 -1.98155 36379 ft 445 kts 338°
2026-04-21 17:41 53.60876 -2.01809 36384 ft 445 kts 338°
2026-04-21 17:41 53.66683 -2.05492 36390 ft 446 kts 338°
2026-04-21 17:42 53.72475 -2.09240 36396 ft 446 kts 338°
2026-04-21 17:42 53.78239 -2.13084 36400 ft 446 kts 337°
2026-04-21 17:43 53.84031 -2.16992 36404 ft 446 kts 337°
2026-04-21 17:43 53.89783 -2.20896 36426 ft 446 kts 337°
2026-04-21 17:44 53.95512 -2.24801 36445 ft 446 kts 337°
2026-04-21 17:44 54.01293 -2.28753 36443 ft 446 kts 337°
2026-04-21 17:45 54.07051 -2.32709 36442 ft 446 kts 337°
2026-04-21 17:45 54.12800 -2.36679 36447 ft 447 kts 337°
2026-04-21 17:46 54.18570 -2.40681 36015 ft 453 kts 337°
2026-04-21 17:46 54.21507 -2.42722 35531 ft 454 kts 337°
2026-04-21 17:46 54.24438 -2.44756 35034 ft 452 kts 337°
2026-04-21 17:47 54.27331 -2.46757 34535 ft 451 kts 336°
2026-04-21 17:47 54.30240 -2.48762 34033 ft 449 kts 336°
2026-04-21 17:47 54.33121 -2.50739 33535 ft 447 kts 336°
2026-04-21 17:47 54.36017 -2.52719 33033 ft 446 kts 336°
2026-04-21 17:48 54.38894 -2.54676 32533 ft 445 kts 336°
2026-04-21 17:48 54.41778 -2.56630 32032 ft 444 kts 336°
2026-04-21 17:48 54.44641 -2.58561 31533 ft 444 kts 336°
2026-04-21 17:48 54.47517 -2.60493 31039 ft 443 kts 336°
2026-04-21 17:49 54.50362 -2.62396 30561 ft 443 kts 336°
2026-04-21 17:49 54.53268 -2.64333 30060 ft 443 kts 336°
2026-04-21 17:49 54.56124 -2.66233 29564 ft 444 kts 337°
2026-04-21 17:49 54.59016 -2.68165 29060 ft 445 kts 337°
2026-04-21 17:50 54.61919 -2.70124 28558 ft 447 kts 337°
2026-04-21 17:50 54.64817 -2.72108 28050 ft 449 kts 337°
2026-04-21 17:50 54.67697 -2.74111 27556 ft 451 kts 337°
2026-04-21 17:50 54.70632 -2.76183 27049 ft 454 kts 337°
2026-04-21 17:51 54.73527 -2.78259 26551 ft 457 kts 337°
2026-04-21 17:51 54.76490 -2.80418 26046 ft 460 kts 337°
2026-04-21 17:51 54.79455 -2.82609 25544 ft 463 kts 337°
2026-04-21 17:51 54.82410 -2.84822 25045 ft 465 kts 337°
2026-04-21 17:52 54.85403 -2.87095 24541 ft 468 kts 337°
2026-04-21 17:52 54.88348 -2.89461 24044 ft 471 kts 335°
2026-04-21 17:52 54.91265 -2.92038 23552 ft 474 kts 333°
2026-04-21 17:52 54.94175 -2.94748 23086 ft 477 kts 333°
2026-04-21 17:53 54.97121 -2.97575 22586 ft 480 kts 332°
2026-04-21 17:53 55.00019 -3.00409 22089 ft 483 kts 332°
2026-04-21 17:53 55.02953 -3.03313 21586 ft 485 kts 332°
2026-04-21 17:53 55.05904 -3.06259 21080 ft 487 kts 332°
2026-04-21 17:54 55.08810 -3.09177 20583 ft 488 kts 332°
2026-04-21 17:54 55.11771 -3.12165 20078 ft 490 kts 332°
2026-04-21 17:54 55.14735 -3.15173 19573 ft 492 kts 332°
2026-04-21 17:54 55.17665 -3.18160 19075 ft 493 kts 332°
2026-04-21 17:55 55.20656 -3.21226 18568 ft 495 kts 332°
2026-04-21 17:55 55.23602 -3.24260 18069 ft 496 kts 332°
2026-04-21 17:55 55.26595 -3.27354 17562 ft 498 kts 332°
2026-04-21 17:55 55.29572 -3.30446 17060 ft 500 kts 331°
2026-04-21 17:56 55.32577 -3.33576 16553 ft 501 kts 331°
2026-04-21 17:56 55.35560 -3.36689 16051 ft 503 kts 331°
2026-04-21 17:56 55.38589 -3.39854 15543 ft 504 kts 331°
2026-04-21 17:56 55.41538 -3.42943 15054 ft 477 kts 331°
2026-04-21 17:57 55.44234 -3.45793 14581 ft 427 kts 331°
2026-04-21 17:57 55.46675 -3.48397 14085 ft 392 kts 331°
2026-04-21 17:57 55.48930 -3.50822 13581 ft 367 kts 331°
2026-04-21 17:57 55.51029 -3.53093 13086 ft 348 kts 331°
2026-04-21 17:58 55.53052 -3.55292 12579 ft 333 kts 331°
2026-04-21 17:58 55.54990 -3.57405 12075 ft 321 kts 331°
2026-04-21 17:58 55.56875 -3.59464 11570 ft 313 kts 331°
2026-04-21 17:58 55.58705 -3.61467 11069 ft 308 kts 331°
2026-04-21 17:59 55.60501 -3.63436 10573 ft 305 kts 331°
2026-04-21 17:59 55.62313 -3.65430 10066 ft 302 kts 331°
2026-04-21 17:59 55.64031 -3.67326 9579 ft 300 kts 331°
2026-04-21 17:59 55.65801 -3.69280 9080 ft 298 kts 331°
2026-04-21 18:00 55.67561 -3.71223 8578 ft 295 kts 331°
2026-04-21 18:00 55.69330 -3.72984 8073 ft 290 kts 340°
2026-04-21 18:00 55.71245 -3.74026 7588 ft 284 kts 350°
2026-04-21 18:00 55.73178 -3.74705 7095 ft 279 kts 354°
2026-04-21 18:01 55.75056 -3.75249 6613 ft 273 kts 355°
2026-04-21 18:01 55.76899 -3.75755 6362 ft 260 kts 355°
2026-04-21 18:01 55.78631 -3.76233 6152 ft 247 kts 356°
2026-04-21 18:01 55.80284 -3.76701 6032 ft 232 kts 356°
2026-04-21 18:02 55.81827 -3.77154 5950 ft 218 kts 356°
2026-04-21 18:02 55.83288 -3.77598 5762 ft 211 kts 356°
2026-04-21 18:02 55.84725 -3.78037 5590 ft 210 kts 356°
2026-04-21 18:02 55.86161 -3.78477 5391 ft 206 kts 356°
2026-04-21 18:03 55.87552 -3.78888 5183 ft 201 kts 359°
2026-04-21 18:03 55.88871 -3.78522 4956 ft 185 kts 31°
2026-04-21 18:03 55.89735 -3.77007 4740 ft 173 kts 64°
2026-04-21 18:03 55.89878 -3.74944 4518 ft 173 kts 98°
2026-04-21 18:04 55.89421 -3.72944 4330 ft 176 kts 113°
2026-04-21 18:04 55.88824 -3.71018 4079 ft 176 kts 116°
2026-04-21 18:04 55.88211 -3.69148 3831 ft 175 kts 117°
2026-04-21 18:04 55.87631 -3.67274 3571 ft 172 kts 110°
2026-04-21 18:05 55.87357 -3.65218 3332 ft 169 kts 97°
2026-04-21 18:05 55.87267 -3.63136 3085 ft 168 kts 90°
2026-04-21 18:05 55.87383 -3.61076 2834 ft 166 kts 79°
2026-04-21 18:05 55.87724 -3.59154 2586 ft 162 kts 69°
2026-04-21 18:06 55.88211 -3.57370 2335 ft 156 kts 63°
2026-04-21 18:06 55.88743 -3.55754 2076 ft 146 kts 60°
2026-04-21 18:06 55.89250 -3.54286 1921 ft 134 kts 60°
2026-04-21 18:06 55.89722 -3.52899 1822 ft 131 kts 60°
2026-04-21 18:07 55.90193 -3.51513 1703 ft 130 kts 60°
2026-04-21 18:07 55.90656 -3.50147 1573 ft 128 kts 60°
2026-04-21 18:07 55.91116 -3.48787 1446 ft 127 kts 60°
2026-04-21 18:07 55.91571 -3.47437 1318 ft 126 kts 60°
2026-04-21 18:08 55.92024 -3.46096 1168 ft 126 kts 60°
2026-04-21 18:08 55.92470 -3.44773 989 ft 125 kts 60°
2026-04-21 18:08 55.92917 -3.43446 810 ft 124 kts 59°
2026-04-21 18:08 55.93354 -3.42147 632 ft 122 kts 59°
2026-04-21 18:09 55.93791 -3.40849 457 ft 121 kts 59°
2026-04-21 18:09 55.94226 -3.39558 298 ft 120 kts 59°
2026-04-21 18:09 55.94512 -3.38708 189 ft 120 kts 59°
2026-04-21 18:09 55.95011 -3.37219 144 ft 72 kts 59°
2026-04-21 18:10 55.95178 -3.36724 144 ft 33 kts 59°
2026-04-21 18:10 55.95258 -3.36471 144 ft 11 kts 81°
2026-04-21 18:10 55.95241 -3.36404 144 ft 4 kts 136°
2026-04-21 18:10 55.95221 -3.36379 144 ft 2 kts 148°
2026-04-21 18:11 55.95211 -3.36368 144 ft 2 kts 148°
2026-04-21 18:11 55.95187 -3.36341 144 ft 6 kts 148°
2026-04-21 18:11 55.95140 -3.36308 144 ft 8 kts 185°
2026-04-21 18:11 55.95106 -3.36366 144 ft 8 kts 240°
2026-04-21 18:12 55.95056 -3.36389 144 ft 10 kts 149°
2026-04-21 18:12 55.95001 -3.36429 144 ft 8 kts 239°
2026-04-21 18:12 55.94967 -3.36480 144 ft 2 kts 162°
2026-04-21 18:12 55.94948 -3.36456 144 ft 5 kts 149°
2026-04-21 18:13 55.94925 -3.36432 144 ft 0 kts 149°